Maniitsoq

KL  EN  DA
ASIAQ
Weather Now GREENLAND SURVEY
Updated [WGT/WGST] Temperature [°C] Wind [m/s] Air pressure [hPa] Relative humidity [%] Precipitation [mm]
Present Wind chill Speed Max
21.01 19:00-9,9-17,24,8 ⇒6,2996870,2
21.01 18:00-9,1-17,56,8 ⇗10,4996770,1
21.01 17:00-9,1-15,43,9 ⇑5,9996620,0
21.01 16:00-9,8-15,23,0 ⇖4,1996810,0
21.01 15:00-10,1-16,23,5 ⇗6,4996780,4
21.01 14:00-9,6-15,43,3 ⇑5,3996700,1
21.01 13:00-9,9-16,54,1 ⇗5,7996800,0
21.01 12:00-9,4-15,63,8 ⇗6,9996560,0
21.01 11:00-9,7-16,54,3 ⇒6,9996760,1
21.01 10:00-9,7-17,25,2 ⇗8,1996710,0
21.01 09:00-9,5-17,15,4 ⇗7,9996580,0
21.01 08:00-9,6-17,86,4 ⇗9,8996730,0
21.01 07:00-9,9-18,26,4 ⇗8,1996700,0
21.01 06:00-9,6-18,37,2 ⇗9,7995630,0
21.01 05:00-10,4-17,74,8 ⇗8,6995780,1
21.01 04:00-9,8-17,85,9 ⇗8,2995530,0
21.01 03:00-10,4-18,86,1 ⇗7,6994730,0
21.01 02:00-10,6-19,87,5 ⇗9,8994740,0
21.01 01:00-10,0-19,07,3 ⇗10,0994670,0
21.01 00:00-9,9-19,38,3 ⇗11,0993690,0
20.01 23:00-10,1-18,36,1 ⇗9,4992710,0
20.01 22:00-9,9-18,26,2 ⇒8,0992650,1
20.01 21:00-10,3-19,78,1 ⇒9,6991800,0
20.01 20:00-9,9-19,48,5 ⇗11,6991600,1
20.01 19:00-9,7-18,87,7 ⇒9,9991640,0
Position: (65.416667,-52.933333)

[Back]